P/2003 L1 ( Scotti )

Japanese version
Home page
Updated on March 11, 2019

---------------------------------------------------------------------

* Profile

Discovery Date June 4, 2003
Magnitude 19.7 mag
Discoverer J. V. Scotti (Kitt Peak)

* Orbital Elements

Epoch 2003 Mar. 22.0 TT = JDT 2452720.5
T 2003 Mar. 7.36981 TT                                  MPCW
q   5.0098757            (2000.0)            P               Q
n   0.05686257     Peri.  355.16323     -0.75164633     +0.64983115
a   6.6975873      Node   226.03827     -0.59975785     -0.74462638
e   0.2519880      Incl.    9.02431     -0.27444182     -0.15248290
P  17.33
From 75 observations 2002 Apr. 5-2019 Mar. 10, mean residual 0".4.

* Finding Charts

* Magnitudes Graph

        m1 = 9.0 + 5 log d + 10.0 log r

---------------------------------------------------------------------

The orbital elements are published on M.P.E.C. 2019-E80.
The charts are made with StellaNavigator Ver.2.0 for Windows (AstroArts / ASCII).
The magnitudes graphs are made with Comet for Windows.

---------------------------------------------------------------------

Copyright(C) Seiichi Yoshida (comet@aerith.net). All rights reserved.